Showing default

COSMOS 2384, 27055

Orbit data source: Space-Track

COSMOS 2384, 27055 is a payload satellite owned by KVR (CIS) in LEO that was launched on Fri, 28 Dec 2001 UTC via a TSIKLON-3 launch vehicle from the Plesetsk Missile And Space Complex (PKMTR). Payload-class satellites include a variety of spacecraft equipped with specific instruments for various scientific and technological missions. These include communications satellites like Starlink; space stations such as the ISS; scientific satellites like the Hubble; Earth observation satellites from companies like Planet Labs, Umbra, and HawkEye 360; GPS; miniature CubeSats for education and research; and military/defense satellites.

Loading next visibility...
Identifier
27055, 2001-058A
Orbit
LEO
Country
Flag of CISCIS
Related business
Manufacturer
NPO PM
Mission
Non-operational Defense Communications
Bus & Motor
STRELA-3, Unknown motor
Mass
225 kg wet, 225 kg dry
Launch date (UTC)
2001-12-28 (24 years ago)
Launch vehicle
TSIKLON-3
Launch site
Plesetsk Missile And Space Complex (PKMTR)
Object type
Payload
Rocket body
Debris
Shape & HBR
Cyl + 1 Arm, 3.5 m
Radar Cross Section
1.257 m², Medium (>0.1 m² and < 1m²)

Expand to show TLE details & history
Last TLE update: 8 hours ago

TLE from 8 hours ago
0 COSMOS 2384
1 27055U 01058A   26037.63047765  .00000039  00000-0  16251-3 0  9999
2 27055  82.5493 316.9013 0009715 184.0903 176.0109 12.59887602108610
Epoch: 2026-02-06T15:07Z
TLE epoch observation values (Epoch: 2026-02-06T15:07:53.268Z)
Latitude
-0.00003°
Longitude
-46.83625°
Altitude
1,433.696 km
Speed
7.141 km/s
True Right ascension
21h 07m 36s
True Declination
0° 00' 00"
Sunlit
Object was in daylight at epoch
Visualization orbit readout
Latitude
Unknown
Longitude
Unknown
Altitude
Unknown
Speed
Unknown
Apparent Right ascension
Unknown
Apparent Declination
Unknown
Sunlit
N/A
Visualization observer readout
Local Sidereal Time
01:05:34
Azimuth
Unknown
Elevation
Unknown
Doppler factor
Unknown
Orbital elements
Apogee altitude
1,428.31 km
Perigee altitude
1,413.157 km
Semi-major axis
7,798.871 km
Eccentricity
0.00097
Inclination
82.5493°
RAAN
316.9013°
Arg. of periapsis
184.0903°
True anomaly
176.01864°
Mean anomaly
176.0109°
Eccentric anomaly
176.01477°
Mean motion
3.15134 °/min
Orbital period
114.24 mins
BSTAR
0.00016251
Loading maneuver chart data...
Computing Atmospheric mass density...
Loading historical data...
Loading historical data...
Loading historical data...
Loading historical data...
Loading historical data...
Loading historical data...
Loading historical data...

Documentation

Showing up to 5 results
|